Location: Tamke-Allan Observatory
(35.8325°N, 84.6178°W)
Time: 16:26:31
(UTC-05:00)

Tiangong 2 - Visible Passes

Search period start: 23 January 2018 00:00
Search period end: 02 February 2018 00:00
Orbit: 384 x 390 km, 42.8° (Epoch: 23 January)

Date Brightness Start Highest point End Pass type
(mag) Time Alt. Az. Time Alt. Az. Time Alt. Az.
23 Jan 2.8 06:41:52 17° NW 06:43:11 22° N 06:45:47 10° NE visible
24 Jan 3.7 05:45:53 16° NE 05:45:53 16° NE 05:46:55 10° NE visible
25 Jan 2.7 06:22:07 22° NNW 06:22:42 23° N 06:25:20 10° ENE visible
26 Jan 4.3 05:26:04 11° NE 05:26:04 11° NE 05:26:20 10° NE visible
26 Jan 2.1 06:58:20 12° NW 07:01:03 36° NNE 07:04:03 10° E visible
27 Jan 2.6 06:02:18 27° NNE 06:02:18 27° NNE 06:04:57 10° ENE visible
28 Jan 1.4 06:38:33 22° NW 06:40:23 58° NNE 06:43:31 10° ESE visible
29 Jan 3.0 05:42:34 28° ENE 05:42:34 28° ENE 05:44:31 10° E visible
30 Jan 1.0 06:18:55 50° W 06:19:36 77° SSW 06:22:47 10° ESE visible
31 Jan 4.0 05:23:02 17° E 05:23:02 17° E 05:23:56 10° ESE visible
31 Jan 2.9 06:55:19 12° W 06:57:22 20° SW 06:59:47 10° SSE visible
01 Feb 2.4 05:59:31 31° S 05:59:31 31° S 06:01:41 10° SE visible
